TimeCST,TemperatureF,Dew PointF,Humidity,Sea Level PressureIn,VisibilityMPH,Wind Direction,Wind SpeedMPH,Gust SpeedMPH,PrecipitationIn,Events,Conditions,WindDirDegrees,DateUTC
12:53 AM,32.0,21.9,66,29.94,10.0,NNE,9.2,-,N/A,,Clear,20,2012-12-08 06:53:00
1:53 AM,33.1,21.9,64,29.91,10.0,North,9.2,-,N/A,,Clear,360,2012-12-08 07:53:00
2:53 AM,30.9,21.9,69,29.91,10.0,North,6.9,-,N/A,,Clear,360,2012-12-08 08:53:00
3:53 AM,28.9,21.0,72,29.91,10.0,North,8.1,-,N/A,,Clear,350,2012-12-08 09:53:00
4:53 AM,27.0,19.9,75,29.91,10.0,NNW,8.1,-,N/A,,Clear,340,2012-12-08 10:53:00
5:53 AM,26.1,19.0,75,29.92,10.0,NNW,5.8,-,N/A,,Clear,340,2012-12-08 11:53:00
6:53 AM,24.1,18.0,77,29.93,10.0,NW,3.5,-,N/A,,Clear,320,2012-12-08 12:53:00
7:53 AM,23.0,17.1,78,29.93,10.0,NW,3.5,-,N/A,,Clear,310,2012-12-08 13:53:00
8:53 AM,27.0,19.0,72,29.93,10.0,NW,5.8,-,N/A,,Scattered Clouds,310,2012-12-08 14:53:00
9:00 AM,28.4,19.4,69,29.92,10.0,NW,6.9,-,N/A,,Mostly Cloudy,310,2012-12-08 15:00:00
9:48 AM,33.8,23.0,65,29.90,10.0,Calm,Calm,-,N/A,,Overcast,0,2012-12-08 15:48:00
9:53 AM,34.0,24.1,67,29.90,10.0,South,5.8,-,N/A,,Overcast,170,2012-12-08 15:53:00
10:53 AM,36.0,30.0,79,29.91,5.0,South,10.4,-,N/A,,Haze,180,2012-12-08 16:53:00
11:15 AM,35.6,28.4,75,29.88,5.0,South,9.2,-,N/A,,Haze,190,2012-12-08 17:15:00
11:53 AM,39.0,30.0,70,29.85,7.0,SSW,9.2,18.4,N/A,,Overcast,210,2012-12-08 17:53:00
12:17 PM,41.0,28.4,61,29.82,9.0,SSW,11.5,-,N/A,,Scattered Clouds,210,2012-12-08 18:17:00
12:53 PM,44.1,28.9,55,29.77,10.0,SSW,13.8,-,N/A,,Clear,200,2012-12-08 18:53:00
1:53 PM,50.0,28.9,44,29.71,10.0,SSW,18.4,25.3,N/A,,Clear,200,2012-12-08 19:53:00
2:53 PM,54.0,27.0,35,29.66,10.0,SW,16.1,24.2,N/A,,Clear,220,2012-12-08 20:53:00
3:53 PM,59.0,26.1,28,29.63,10.0,SSW,19.6,-,N/A,,Clear,210,2012-12-08 21:53:00
4:53 PM,57.9,25.0,28,29.63,10.0,SSW,13.8,-,N/A,,Clear,210,2012-12-08 22:53:00
5:53 PM,48.0,23.0,37,29.66,10.0,South,10.4,-,N/A,,Clear,190,2012-12-08 23:53:00
6:53 PM,42.1,21.9,45,29.68,10.0,SSW,10.4,-,N/A,,Clear,200,2012-12-09 00:53:00
7:53 PM,48.0,19.0,32,29.66,10.0,SW,13.8,-,N/A,,Clear,220,2012-12-09 01:53:00
8:53 PM,46.9,17.1,30,29.67,10.0,WSW,15.0,-,N/A,,Clear,240,2012-12-09 02:53:00
9:53 PM,46.0,19.0,34,29.66,10.0,West,13.8,-,N/A,,Clear,260,2012-12-09 03:53:00
10:53 PM,41.0,19.0,41,29.70,10.0,North,5.8,-,N/A,,Clear,350,2012-12-09 04:53:00
11:53 PM,46.0,17.1,31,29.70,10.0,WNW,13.8,-,N/A,,Clear,290,2012-12-09 05:53:00